Simultaneous Nadir Overpasses (SNOs) Predictions

Prediction of SNOs over PacNW region [( 10.00, 139.50) to ( 22.70, 165.60)] between NOAA-19 and NPP Satellites:

Table of predicted SNOs over PacNW region for the next 30.0 days since TLE Epoch: 4/8/2013
Index Date (NOAA-19) Time (NOAA-19) NOAA-19 Lat,Lon Date (NPP) Time (NPP) NPP Lat,Lon Distance(km) Time Diff (sec)
1 04/13/2013 03:45:21 22.35, 144.24 04/13/2013 03:45:26 21.64, 141.11 332.54 5
2 04/13/2013 16:21:42 10.02, 140.40 04/13/2013 16:18:05 8.41, 137.72 344.50 217
3 04/25/2013 03:12:52 10.08, 154.52 04/25/2013 03:16:28 8.57, 150.54 467.89 216
4 04/25/2013 15:49:35 20.95, 150.35 04/25/2013 15:49:05 21.59, 147.18 335.90 30
5 04/26/2013 03:05:33 22.70, 154.20 04/26/2013 03:01:55 24.36, 151.52 329.47 218
